FW8535 Weather Reports


time (UTC)temp
F
wind
direction
speed
knots
gust
knots
rain 1hr
in
rain 24hr
in
rain mn
in
humidity
%
barometer
mb
20260510065534 48 27 0.0 0.0 0.00 0.00 0.00 43 1020.0
20260510065034 49 27 0.0 1.7 0.00 0.00 0.00 43 1020.0
20260510064533 49 27 0.0 2.6 0.00 0.00 0.00 43 1020.0
20260510064032 49 27 0.0 2.6 0.00 0.00 0.00 43 1020.1
20260510063530 49 27 0.9 2.6 0.00 0.00 0.00 42 1020.1
20260510063031 50 27 0.0 3.5 0.00 0.00 0.00 42 1019.9
20260510062530 50 27 0.0 1.7 0.00 0.00 0.00 42 1019.8
20260510062029 50 27 0.0 2.6 0.00 0.00 0.00 43 1019.9
20260510061026 49 20 0.0 2.6 0.00 0.00 0.00 43 1019.9
20260510060526 49 19 0.9 2.6 0.00 0.00 0.00 43 1019.8
20260510060026 49 19 0.9 2.6 0.00 0.00 0.00 44 1019.6
20260510055525 49 19 0.9 3.5 0.00 0.00 0.00 44 1019.5
20260510055026 49 19 1.7 3.5 0.00 0.00 0.00 44 1019.6
20260510054525 48 34 1.7 3.5 0.00 0.00 0.00 45 1019.5
20260510054024 48 34 0.0 1.7 0.00 0.00 0.00 47 1019.4
20260510053523 48 34 0.0 0.9 0.00 0.00 0.00 48 1019.3
20260510053044 48 34 0.0 2.6 0.00 0.00 0.00 47 1019.2
20260510052525 48 34 0.0 2.6 0.00 0.00 0.00 47 1019.1
20260510052022 47 34 0.9 2.6 0.00 0.00 0.00 47 1018.9
20260510051520 46 34 0.0 0.0 0.00 0.00 0.00 49 1018.6
20260510051021 46 34 0.0 0.0 0.00 0.00 0.00 49 1018.5
20260510050519 46 34 0.0 0.0 0.00 0.00 0.00 50 1018.6
20260510050019 46 34 0.0 0.0 0.00 0.00 0.00 50 1018.5
20260510045520 46 34 0.0 0.0 0.00 0.00 0.00 50 1018.5
20260510045020 46 34 0.0 0.0 0.00 0.00 0.00 48 1018.3
20260510044022 47 34 0.0 0.0 0.00 0.00 0.00 49 1018.3
20260510043521 47 34 0.0 0.0 0.00 0.00 0.00 49 1018.2
20260510043036 47 34 0.0 1.7 0.00 0.00 0.00 48 1018.2
20260510042521 47 34 0.0 2.6 0.00 0.00 0.00 47 1018.2
20260510042021 48 34 0.9 2.6 0.00 0.00 0.00 46 1018.1
20260510041525 48 34 0.0 1.7 0.00 0.00 0.00 47 1018.1
20260510041020 48 34 0.0 1.7 0.00 0.00 0.00 47 1018.1
20260510040519 48 34 0.0 0.0 0.00 0.00 0.00 48 1018.1
20260510040033 48 34 0.0 0.0 0.00 0.00 0.00 48 1018.1
20260510035519 48 34 0.0 0.0 0.00 0.00 0.00 48 1017.9
20260510035018 48 34 0.0 0.0 0.00 0.00 0.00 48 1017.9
20260510034017 48 34 0.0 0.9 0.00 0.00 0.00 47 1017.8
20260510033517 48 34 0.0 0.0 0.00 0.00 0.00 46 1017.7
20260510033015 48 34 0.0 1.7 0.00 0.00 0.00 47 1017.7
20260510032515 48 34 0.0 1.7 0.00 0.00 0.00 46 1017.6
20260510032018 49 34 0.9 1.7 0.00 0.00 0.00 46 1017.5
20260510031518 49 34 0.9 2.6 0.00 0.00 0.00 45 1017.5
20260510031014 49 36 0.0 2.6 0.00 0.00 0.00 45 1017.3
20260510030512 49 40 0.0 0.0 0.00 0.00 0.00 45 1017.3
20260510030012 50 40 0.0 0.0 0.00 0.00 0.00 44 1017.2
20260510025512 50 40 0.0 0.0 0.00 0.00 0.00 44 1017.2
20260510025012 51 40 0.0 0.0 0.00 0.00 0.00 44 1017.1
20260510024019 52 40 0.0 0.0 0.00 0.00 0.00 42 1017.0
20260510023511 52 40 0.0 0.0 0.00 0.00 0.00 42 1016.9
20260510023011 53 41 0.0 1.7 0.00 0.00 0.00 41 1016.8
20260510022512 54 41 0.0 1.7 0.00 0.00 0.00 40 1016.7
20260510022012 55 41 0.9 1.7 0.00 0.00 0.00 39 1016.8
20260510021522 56 41 0.9 2.6 0.00 0.00 0.00 38 1016.6
20260510021010 56 41 0.9 7.0 0.00 0.00 0.00 38 1016.6
20260510020509 57 46 2.6 7.8 0.00 0.00 0.00 38 1016.5
20260510020009 58 360 1.7 3.5 0.00 0.00 0.00 38 1016.5
20260510015509 59 360 0.0 1.7 0.00 0.00 0.00 38 1016.3
20260510015008 60 360 0.0 2.6 0.00 0.00 0.00 37 1016.2
20260510014009 61 360 1.7 3.5 0.00 0.00 0.00 36 1015.9
20260510013511 61 360 1.7 3.5 0.00 0.00 0.00 36 1016.1
20260510013010 61 17 1.7 3.5 0.00 0.00 0.00 36 1016.0
20260510012508 62 326 0.9 3.5 0.00 0.00 0.00 36 1015.9
20260510012008 62 308 0.9 3.5 0.00 0.00 0.00 36 1015.9
20260510011508 62 305 1.7 7.0 0.00 0.00 0.00 36 1016.1
20260510011007 63 308 2.6 7.0 0.00 0.00 0.00 35 1015.8
20260510010507 63 311 2.6 7.8 0.00 0.00 0.00 34 1016.0
20260510010008 64 315 1.7 7.8 0.00 0.00 0.00 34 1015.8
20260510005509 64 318 0.9 5.2 0.00 0.00 0.00 34 1015.8
20260510005008 65 355 1.7 7.8 0.00 0.00 0.00 33 1015.9
20260510004007 65 308 3.5 9.6 0.00 0.00 0.00 33 1015.7
20260510003506 65 333 4.3 7.8 0.00 0.00 0.00 32 1015.6
20260510003006 66 305 2.6 7.0 0.00 0.00 0.00 33 1015.7
20260510002506 65 325 2.6 7.8 0.00 0.00 0.00 33 1015.5
20260510002008 65 331 3.5 7.8 0.00 0.00 0.00 34 1015.5
20260510001508 65 283 2.6 7.0 0.00 0.00 0.00 34 1015.5
20260510001005 64 301 1.7 7.0 0.00 0.00 0.00 34 1015.4
20260510000505 64 315 1.7 7.8 0.00 0.00 0.00 33 1015.5
20260510000005 65 318 3.5 7.8 0.00 0.00 0.00 33 1015.6
20260509235505 65 317 3.5 9.6 0.00 0.00 0.00 33 1015.4
20260509235005 66 322 6.1 11.3 0.00 0.00 0.00 32 1015.4
20260509234002 66 298 5.2 10.4 0.00 0.00 0.00 32 1015.3
20260509233501 66 268 3.5 8.7 0.00 0.00 0.00 32 1015.3
20260509233001 66 273 4.3 9.6 0.00 0.00 0.00 32 1015.5
20260509232501 66 317 4.3 9.6 0.00 0.00 0.00 32 1015.3
20260509232000 66 286 3.5 8.7 0.00 0.00 0.00 33 1015.3
20260509231502 65 12 1.7 7.8 0.00 0.00 0.00 33 1015.4
20260509231100 65 327 3.5 7.8 0.00 0.00 0.00 33 1015.4
20260509230603 65 317 2.6 7.8 0.00 0.00 0.00 33 1015.4
20260509230100 66 19 3.5 9.6 0.00 0.00 0.00 33 1015.5
20260509225602 66 338 2.6 9.6 0.00 0.00 0.00 33 1015.3
20260509225059 65 346 5.2 9.6 0.00 0.00 0.00 34 1015.2
20260509224100 65 360 3.5 8.7 0.00 0.00 0.00 33 1015.4
20260509223603 65 9 2.6 9.6 0.00 0.00 0.00 33 1015.4
20260509223103 66 303 4.3 9.6 0.00 0.00 0.00 33 1015.4
20260509222605 66 5 4.3 8.7 0.00 0.00 0.00 32 1015.3
20260509222059 66 19 4.3 8.7 0.00 0.00 0.00 32 1015.3
20260509221600 66 300 1.7 7.8 0.00 0.00 0.00 32 1015.3
20260509221100 66 272 3.5 12.2 0.00 0.00 0.00 32 1015.4
20260509220601 66 320 5.2 12.2 0.00 0.00 0.00 32 1015.3
20260509215559 65 321 2.6 7.8 0.00 0.00 0.00 33 1015.3
20260509215059 65 28 2.6 8.7 0.00 0.00 0.00 32 1015.3
20260509214100 65 344 2.6 11.3 0.00 0.00 0.00 33 1015.4
20260509213559 66 339 4.3 11.3 0.00 0.00 0.00 33 1015.6
20260509213103 66 318 3.5 10.4 0.00 0.00 0.00 34 1015.6
20260509212559 65 308 3.5 8.7 0.00 0.00 0.00 34 1015.6
20260509212059 65 24 3.5 9.6 0.00 0.00 0.00 34 1015.6
20260509211559 66 331 6.1 13.0 0.00 0.00 0.00 34 1015.6
20260509211058 66 294 4.3 10.4 0.00 0.00 0.00 35 1015.4
20260509210558 66 330 3.5 9.6 0.00 0.00 0.00 35 1015.5
20260509210107 65 316 3.5 10.4 0.00 0.00 0.00 36 1015.6
20260509205600 66 271 6.1 13.0 0.00 0.00 0.00 34 1015.6
20260509205057 66 310 5.2 13.0 0.00 0.00 0.00 36 1015.6
20260509204055 65 360 3.5 10.4 0.00 0.00 0.00 36 1015.6
20260509203558 65 311 3.5 11.3 0.00 0.00 0.00 38 1015.6
20260509203102 64 279 4.3 11.3 0.00 0.00 0.00 38 1015.5
20260509202552 63 278 3.5 11.3 0.00 0.00 0.00 39 1015.6
20260509202051 63 5 4.3 10.4 0.00 0.00 0.00 40 1015.6
20260509201551 61 24 1.7 8.7 0.00 0.00 0.00 43 1015.8
20260509201052 61 287 4.3 8.7 0.00 0.00 0.00 41 1015.7
20260509200551 62 296 3.5 11.3 0.00 0.00 0.00 40 1015.6
20260509200051 63 321 5.2 11.3 0.00 0.00 0.00 39 1015.8
20260509195550 62 13 3.5 10.4 0.00 0.00 0.00 40 1015.8
20260509195048 61 329 3.5 10.4 0.00 0.00 0.00 41 1015.8
20260509194053 60 355 4.3 9.6 0.00 0.00 0.00 42 1015.7
20260509193553 60 306 4.3 10.4 0.00 0.00 0.00 40 1015.7
20260509193057 61 343 4.3 10.4 0.00 0.00 0.00 40 1015.7
20260509192555 61 288 3.5 10.4 0.00 0.00 0.00 40 1015.7
20260509192053 61 343 2.6 10.4 0.00 0.00 0.00 41 1015.7
20260509191603 60 22 4.3 9.6 0.00 0.00 0.00 40 1015.5
20260509191055 61 33 3.5 10.4 0.00 0.00 0.00 40 1015.7
20260509190553 60 9 4.3 9.6 0.00 0.00 0.00 41 1015.6
20260509190054 60 51 2.6 7.8 0.00 0.00 0.00 41 1015.6
20260509185551 61 355 2.6 8.7 0.00 0.00 0.00 40 1015.8
20260509185050 61 360 3.5 8.7 0.00 0.00 0.00 40 1015.8
20260509184651 60 5 2.6 10.4 0.00 0.00 0.00 41 1015.7
20260509184045 60 315 2.6 10.4 0.00 0.00 0.00 40 1015.7
20260509183546 61 350 6.1 10.4 0.00 0.00 0.00 39 1015.7
20260509183052 61 5 3.5 11.3 0.00 0.00 0.00 39 1015.7
20260509182547 61 9 6.1 11.3 0.00 0.00 0.00 40 1015.6
20260509182044 60 28 3.5 9.6 0.00 0.00 0.00 40 1015.6
20260509181543 60 346 3.5 10.4 0.00 0.00 0.00 40 1015.6
20260509181043 60 17 5.2 10.4 0.00 0.00 0.00 40 1015.7
20260509180543 60 350 2.6 7.0 0.00 0.00 0.00 42 1015.5
20260509180042 59 10 3.5 10.4 0.00 0.00 0.00 41 1015.6
20260509175542 60 261 4.3 11.3 0.00 0.00 0.00 40 1015.7
20260509175043 60 28 3.5 12.2 0.00 0.00 0.00 41 1015.6
20260509174045 60 321 2.6 9.6 0.00 0.00 0.00 41 1015.6
20260509173541 59 28 3.5 9.6 0.00 0.00 0.00 41 1015.5
20260509173048 59 294 2.6 9.6 0.00 0.00 0.00 41 1015.6
20260509172543 58 360 5.2 9.6 0.00 0.00 0.00 42 1015.5
20260509172038 58 276 3.5 10.4 0.00 0.00 0.00 43 1015.3
20260509171538 58 338 2.6 9.6 0.00 0.00 0.00 42 1015.4
20260509171036 57 23 3.5 12.2 0.00 0.00 0.00 44 1015.2
20260509170537 57 51 5.2 12.2 0.00 0.00 0.00 42 1015.4
20260509170037 57 24 5.2 10.4 0.00 0.00 0.00 43 1015.5
20260509165536 57 37 3.5 9.6 0.00 0.00 0.00 42 1015.4
20260509165040 57 15 3.5 7.8 0.00 0.00 0.00 43 1015.5
20260509164035 57 342 3.5 8.7 0.00 0.00 0.00 43 1015.5
20260509163533 56 327 2.6 10.4 0.00 0.00 0.00 43 1015.3
20260509163039 56 55 4.3 10.4 0.00 0.00 0.00 43 1015.4
20260509162531 56 62 4.3 10.4 0.00 0.00 0.00 43 1015.3
20260509162030 56 57 3.5 10.4 0.00 0.00 0.00 43 1015.3
20260509161529 56 11 3.5 8.7 0.00 0.00 0.00 44 1015.2
20260509161032 55 29 2.6 7.8 0.00 0.00 0.00 46 1015.3
20260509160526 54 355 3.5 7.8 0.00 0.00 0.00 47 1015.3
20260509160026 54 355 1.7 10.4 0.00 0.00 0.00 47 1015.3
20260509155525 54 60 6.1 10.4 0.00 0.00 0.00 47 1015.3
20260509155023 54 24 2.6 7.8 0.00 0.00 0.00 48 1015.4
20260509154027 54 34 4.3 8.7 0.00 0.00 0.00 48 1015.3
20260509153530 54 34 4.3 8.7 0.00 0.00 0.00 48 1015.1
20260509153034 53 338 3.5 8.7 0.00 0.00 0.00 49 1015.1
20260509152524 53 11 3.5 7.8 0.00 0.00 0.00 50 1015.1
20260509152024 53 22 3.5 12.2 0.00 0.00 0.00 49 1015.1
20260509151523 52 292 2.6 12.2 0.00 0.00 0.00 51 1015.2
20260509151021 52 338 2.6 5.2 0.00 0.00 0.00 55 1015.1
20260509150523 52 31 1.7 5.2 0.00 0.00 0.00 54 1015.1
20260509150021 52 10 0.0 4.3 0.00 0.00 0.00 56 1015.1
20260509145520 51 63 0.0 3.5 0.00 0.00 0.00 59 1015.2
20260509145019 51 285 0.0 2.6 0.00 0.00 0.00 60 1015.1
20260509144018 49 269 0.0 2.6 0.00 0.00 0.00 64 1015.1
20260509143517 49 269 1.7 2.6 0.00 0.00 0.00 64 1015.0
20260509143017 49 282 0.9 3.5 0.00 0.00 0.00 64 1015.1
20260509142520 49 304 0.9 3.5 0.00 0.00 0.00 65 1015.0
20260509142016 48 9 0.9 3.5 0.00 0.00 0.00 65 1014.9
20260509141518 48 5 0.0 3.5 0.00 0.00 0.00 65 1014.9
20260509141014 48 38 0.9 3.5 0.00 0.00 0.00 65 1014.9
20260509140515 48 38 0.0 3.5 0.00 0.00 0.00 66 1014.8
20260509140015 47 23 1.7 3.5 0.00 0.00 0.00 67 1014.8
20260509135514 47 5 0.9 3.5 0.00 0.00 0.00 67 1014.8
20260509135014 47 30 0.9 3.5 0.00 0.00 0.00 68 1014.7
20260509134012 46 50 2.6 4.3 0.00 0.00 0.00 70 1014.5
20260509133512 46 5 2.6 4.3 0.00 0.00 0.00 71 1014.5
20260509133012 45 42 2.6 4.3 0.00 0.00 0.00 72 1014.4
20260509132512 45 19 1.7 4.3 0.00 0.00 0.00 72 1014.4
20260509132012 45 32 0.9 4.3 0.00 0.00 0.00 73 1014.4
20260509131514 44 33 0.9 4.3 0.00 0.00 0.00 74 1014.3
20260509131010 44 49 1.7 4.3 0.00 0.00 0.00 74 1014.3
20260509130511 44 13 2.6 4.3 0.00 0.00 0.00 75 1014.3
20260509130024 43 5 2.6 4.3 0.00 0.00 0.00 76 1014.2
20260509125509 43 22 1.7 3.5 0.00 0.00 0.00 77 1014.1
20260509125009 42 15 0.0 1.7 0.00 0.00 0.00 79 1014.1
20260509124010 41 15 0.0 0.9 0.00 0.00 0.00 80 1013.9
20260509123509 40 15 0.0 0.9 0.00 0.00 0.00 80 1013.9
20260509123009 40 15 0.0 0.9 0.00 0.00 0.00 81 1013.9
20260509122509 40 13 0.0 0.0 0.00 0.00 0.00 80 1013.7
20260509122008 39 13 0.0 0.0 0.00 0.00 0.00 81 1013.5
20260509121511 39 13 0.0 0.0 0.00 0.00 0.00 81 1013.5
20260509121007 39 13 0.0 0.0 0.00 0.00 0.00 82 1013.5
20260509120507 38 13 0.0 0.0 0.00 0.00 0.00 82 1013.3
20260509120007 38 13 0.0 0.0 0.00 0.00 0.00 83 1013.3
20260509115505 38 13 0.0 0.0 0.00 0.00 0.00 83 1013.1
20260509115005 37 14 0.0 0.0 0.00 0.00 0.00 83 1013.2
20260509114100 37 14 0.0 0.0 0.00 0.00 0.00 82 1012.9
20260509113603 37 14 0.0 0.0 0.00 0.00 0.00 81 1012.9
20260509113101 38 14 0.0 0.0 0.00 0.00 0.00 81 1012.9
20260509112557 38 14 0.0 0.0 0.00 0.00 0.00 81 1012.8
20260509112056 38 16 0.0 0.0 0.00 0.00 0.00 81 1012.7
20260509111556 39 16 0.0 0.0 0.00 0.00 0.00 82 1012.7
20260509111054 39 17 0.0 0.0 0.00 0.00 0.00 82 1012.5
20260509110558 39 17 0.0 1.7 0.00 0.00 0.00 82 1012.4
20260509110056 39 17 0.0 1.7 0.00 0.00 0.00 82 1012.4
20260509105552 39 16 0.0 0.9 0.00 0.00 0.00 81 1012.3
20260509105051 39 16 0.0 0.9 0.00 0.00 0.00 81 1012.1
20260509104652 39 16 0.0 2.6 0.00 0.00 0.00 81 1012.1
20260509104051 40 16 0.0 3.5 0.00 0.00 0.00 81 1012.0
20260509103551 40 23 1.7 4.3 0.00 0.00 0.00 81 1011.9
20260509103100 40 24 1.7 4.3 0.00 0.00 0.00 81 1011.8
20260509102550 40 33 1.7 4.3 0.00 0.00 0.00 81 1011.6
20260509102050 40 36 2.6 4.3 0.00 0.00 0.00 81 1011.6
20260509101601 40 28 1.7 3.5 0.00 0.00 0.00 81 1011.6
20260509101047 40 28 1.7 3.5 0.00 0.00 0.00 81 1011.5
20260509100547 41 28 1.7 3.5 0.00 0.00 0.00 81 1011.4
20260509100046 41 28 0.9 2.6 0.00 0.00 0.00 80 1011.3
20260509095545 41 28 0.9 3.5 0.00 0.00 0.00 80 1011.2
20260509095044 42 28 1.7 4.3 0.00 0.00 0.00 80 1011.2
20260509094645 42 26 1.7 4.3 0.00 0.00 0.00 80 1011.1
20260509094043 42 28 1.7 3.5 0.00 0.00 0.00 80 1011.1
20260509093540 42 20 1.7 2.6 0.00 0.00 0.00 80 1011.0
20260509093040 42 20 1.7 2.6 0.00 0.00 0.00 81 1011.0
20260509092539 42 20 1.7 2.6 0.00 0.00 0.00 81 1010.9
20260509092038 42 20 1.7 2.6 0.00 0.00 0.00 81 1010.7
20260509091537 42 20 0.0 1.7 0.00 0.00 0.00 80 1010.9
20260509091039 42 20 0.0 0.9 0.00 0.00 0.00 80 1010.5
20260509090538 42 20 0.0 1.7 0.00 0.00 0.00 80 1010.3
20260509090040 42 20 0.0 1.7 0.00 0.00 0.00 81 1010.3
20260509085533 42 20 0.0 0.9 0.00 0.00 0.00 80 1010.3
20260509085032 42 20 0.0 0.9 0.00 0.00 0.00 79 1010.2
20260509084632 42 20 0.0 1.7 0.00 0.00 0.00 79 1010.1
20260509084037 42 20 0.0 1.7 0.00 0.00 0.00 80 1010.0
20260509083537 42 20 0.9 2.6 0.00 0.00 0.00 79 1009.8
20260509083050 43 20 0.9 2.6 0.00 0.00 0.00 80 1009.6
20260509082534 43 20 0.9 2.6 0.00 0.00 0.00 79 1009.5
20260509082033 43 20 0.9 2.6 0.00 0.00 0.00 79 1009.6
20260509081532 44 20 0.9 2.6 0.00 0.00 0.00 78 1009.5
20260509081030 44 21 0.9 2.6 0.00 0.00 0.00 78 1009.4
20260509080528 45 21 1.7 3.5 0.00 0.00 0.00 78 1009.4
20260509080030 45 24 1.7 3.5 0.00 0.00 0.00 78 1009.4
20260509075531 45 45 0.9 2.6 0.00 0.00 0.00 78 1009.4
20260509075026 45 45 0.0 1.7 0.00 0.00 0.00 77 1009.4
20260509074625 46 45 0.0 0.0 0.00 0.00 0.00 77 1009.2
20260509074024 46 45 0.0 0.0 0.00 0.00 0.00 77 1009.3
20260509073524 46 45 0.0 1.7 0.00 0.00 0.00 76 1009.2
20260509073030 47 45 0.0 2.6 0.00 0.00 0.00 77 1009.2
20260509072524 47 45 0.9 4.3 0.00 0.00 0.00 77 1009.0
20260509072022 47 45 1.7 5.2 0.00 0.00 0.00 78 1008.9
20260509071530 46 44 2.6 5.2 0.00 0.00 0.00 78 1009.0
20260509071021 46 103 1.7 2.6 0.00 0.00 0.00 75 1008.9
20260509070524 46 103 1.7 2.6 0.00 0.00 0.00 73 1008.9
20260509070018 47 103 0.9 3.5 0.00 0.00 0.00 72 1008.7